Location: Unspecified
(49.9820°N, 20.4363°E)
Time: 03:57:53
(UTC+02:00)

Vanguard 3 - Pass Details

Date: 22 May 2026
Orbit: 507 x 3204 km, 33.3° (Epoch: 6 June)

Event Time Altitude Azimuth Distance (km) Brightness Sun altitude
Rises 11:25:23 0° 213° (SSW) 5,545 11.6 57.4°
Reaches altitude 10° 11:29:13 10° 204° (SSW) 4,901 11.5 57.7°
Maximum altitude 11:41:37 32° 149° (SSE) 4,215 12.1 58.6°
Drops below altitude 10° 11:57:01 10° 97° (E) 6,127 11.9 59.5°
Sets 12:02:31 0° 89° (E) 7,090 12.0 59.8°
